CW3081 Weather Reports


Display with metric or nautical units.
time (UTC)temp
F
wind
direction
speed
MPH
gust
MPH
rain 1hr
in
rain 24hr
in
rain mn
in
humidity
%
barometer
mb
20260503023055 47 0 0.0 0.0 0.00 0.00 0.00 88 1019.3
20260503021549 47 0 0.0 0.0 0.00 0.00 0.00 88 1019.2
20260503020052 48 0 0.0 0.0 0.00 0.00 0.00 87 1018.9
20260503014549 48 0 0.0 0.0 0.00 0.00 0.00 87 1018.8
20260503013051 49 0 0.0 0.0 0.00 0.00 0.00 86 1018.6
20260503011601 50 0 0.0 0.0 0.00 0.00 0.00 84 1018.6
20260503010107 50 0 0.0 0.0 0.00 0.00 0.00 83 1018.3
20260503004545 51 0 0.0 0.0 0.00 0.00 0.00 81 1018.3
20260503003105 52 0 0.0 0.0 0.00 0.00 0.00 80 1018.0
20260503001540 53 0 0.0 1.0 0.00 0.00 0.00 79 1017.7
20260503000047 53 0 0.0 0.0 0.00 0.00 0.00 78 1017.5
20260502234547 54 338 0.0 1.0 0.00 0.00 0.00 77 1017.4
20260502233103 54 0 0.0 2.0 0.00 0.00 0.00 76 1017.2
20260502231547 55 0 0.0 2.0 0.00 0.00 0.00 76 1017.1
20260502230045 55 293 0.0 3.0 0.00 0.00 0.00 76 1016.8
20260502224552 55 0 0.0 2.0 0.00 0.00 0.00 74 1016.7
20260502223048 55 10 0.0 3.0 0.00 0.00 0.00 72 1016.4
20260502221547 56 0 0.0 2.0 0.00 0.00 0.00 72 1016.2
20260502220043 56 141 0.0 4.0 0.00 0.00 0.00 68 1015.7
20260502214551 56 334 3.0 5.0 0.00 0.00 0.00 63 1016.2
20260502213040 57 271 2.0 5.0 0.00 0.00 0.00 59 1015.6
20260502211542 58 281 2.0 3.0 0.00 0.00 0.00 55 1015.7
20260502210051 60 324 3.0 5.0 0.00 0.00 0.00 50 1015.7
20260502204543 62 326 1.0 2.0 0.00 0.00 0.00 50 1015.2
20260502203059 61 269 0.0 2.0 0.00 0.00 0.00 54 1015.4
20260502201548 60 271 1.0 2.0 0.00 0.00 0.00 56 1015.7
20260502200044 59 283 2.0 10.0 0.00 0.00 0.00 56 1016.1
20260502194541 62 263 0.0 2.0 0.00 0.00 0.00 47 1015.7
20260502193044 63 0 0.0 2.0 0.00 0.00 0.00 43 1015.7
20260502191541 62 290 0.0 2.0 0.00 0.00 0.00 47 1016.0
20260502190045 61 0 0.0 2.0 0.00 0.00 0.00 46 1016.2
20260502184545 63 288 0.0 4.0 0.00 0.00 0.00 44 1016.2
20260502183053 63 316 1.0 3.0 0.00 0.00 0.00 46 1016.3
20260502181541 64 321 1.0 2.0 0.00 0.00 0.00 46 1016.4
20260502163043 61 326 1.0 3.0 0.00 0.00 0.00 51 1017.2
20260502161553 60 0 0.0 1.0 0.00 0.00 0.00 50 1017.4
20260502151553 57 320 1.0 2.0 0.00 0.00 0.00 54 1017.3
20260502123043 42 0 0.0 0.0 0.00 0.00 0.00 93 1017.1
20260502121546 41 0 0.0 0.0 0.00 0.00 0.00 93 1016.9
20260502114615 0 0.0 0.0 0.00 0.00 0.00 1016.7
20260502113045 0 0.0 0.0 0.00 0.00 0.00 1016.6
20260502111549 0 0.0 0.0 0.00 0.00 0.00 1016.4
20260502110044 0 0 0.0 0.0 0.00 0.00 0.00 1016.2
20260502104550 40 0 0.0 0.0 0.00 0.00 0.00 91 1016.4
20260502103047 41 0 0.0 0.0 0.00 0.00 0.00 91 1016.3
20260502101600 41 0 0.0 0.0 0.00 0.00 0.00 90 1016.1
20260502070047 45 0 0.0 0.0 0.00 0.00 0.00 88 1016.7
20260502064614 45 0 0.0 0.0 0.00 0.00 0.00 88 1016.6
20260502063057 45 0 0.0 0.0 0.00 0.00 0.00 87 1016.6
20260502061545 45 0 0.0 0.0 0.00 0.00 0.00 86 1016.8
20260502060047 45 0 0.0 0.0 0.00 0.00 0.00 85 1016.9
20260502054548 45 0 0.0 0.0 0.00 0.00 0.00 83 1017.2
20260502053055 45 0 0.0 0.0 0.00 0.00 0.00 83 1016.9
20260502051548 46 0 0.0 0.0 0.00 0.00 0.00 83 1016.4
20260502050049 46 0 0.0 0.0 0.00 0.00 0.00 82 1016.3
20260502044552 47 0 0.0 0.0 0.00 0.00 0.00 83 1016.3
20260502043111 47 0 0.0 0.0 0.00 0.00 0.00 81 1016.4
20260502041559 47 0 0.0 0.0 0.00 0.00 0.00 83 1016.7
20260502040051 47 0 0.0 0.0 0.00 0.00 0.00 81 1016.8
20260502034545 48 0 0.0 0.0 0.00 0.00 0.00 81 1017.0
20260502033051 48 0 0.0 0.0 0.00 0.00 0.00 80 1017.2
20260502031543 49 0 0.0 0.0 0.00 0.00 0.00 76 1017.3
20260502030048 49 0 0.0 0.0 0.00 0.00 0.00 76 1017.5
20260502024541 49 0 0.0 0.0 0.00 0.00 0.00 75 1017.6